^^
Your Local Weather - Clay, NY Station Historical Data
Daily Summary for March 5, 2018 Units:  Metric    English   Both
« Previous Day
Next Day »
Daily Weekly Monthly Yearly Custom
  High: Low: Average:
Temperature: 1.8 °C -3.1 °C -1.3 °C
Dew Point: -4.4 °C -8.4 °C -5.8 °C
Humidity: 79% 61% 72%
Wind Speed: 9.7km/h 0km/h 4.3km/h
Wind Gust: 17.7km/h - -
Wind- - WNW
Pressure: 1022.9 hPa 1019.2 hPa -
Precipitation: 0.51 mm    
Historical Graphs
 
 
Tabular Data for March 5, 2018
Time Temperature Dew Point Pressure Wind Wind Speed Wind Gust Humidity Rainfall Rate (Hourly) solar
00:04 -2.1 °C -8.4 °C 1022.9 hPa NW 1.6 km/h 3.2 km/h 62% 0 mm 0 W/m2
00:10 -2.1 °C -8.4 °C 1022.9 hPa NW 3.2 km/h 3.2 km/h 62% 0 mm 0 W/m2
00:16 -2.1 °C -8.4 °C 1022.9 hPa NNW 3.2 km/h 11.3 km/h 62% 0 mm 0 W/m2
00:22 -2.1 °C -8.2 °C 1022.9 hPa NW 3.2 km/h 6.4 km/h 63% 0 mm 0 W/m2
00:28 -1.9 °C -8 °C 1022.9 hPa NNW 4.8 km/h 8 km/h 63% 0 mm 0 W/m2
00:34 -1.8 °C -8.2 °C 1022.9 hPa North 4.8 km/h 9.7 km/h 62% 0 mm 0 W/m2
00:40 -1.8 °C -8.2 °C 1022.9 hPa NW 4.8 km/h 4.8 km/h 62% 0 mm 0 W/m2
00:46 -1.8 °C -7.9 °C 1022.9 hPa NW 3.2 km/h 4.8 km/h 63% 0 mm 0 W/m2
00:52 -1.8 °C -7.9 °C 1022.9 hPa NW 1.6 km/h 1.6 km/h 63% 0 mm 0 W/m2
00:58 -1.8 °C -7.9 °C 1022.9 hPa NNW 3.2 km/h 6.4 km/h 63% 0 mm 0 W/m2
01:04 -1.8 °C -7.7 °C 1022.9 hPa NNW 3.2 km/h 3.2 km/h 64% 0 mm 0 W/m2
01:10 -1.8 °C -7.7 °C 1022.6 hPa NNW 1.6 km/h 1.6 km/h 64% 0 mm 0 W/m2
01:16 -1.9 °C -7.6 °C 1022.6 hPa NNW 1.6 km/h 6.4 km/h 65% 0 mm 0 W/m2
01:22 -1.9 °C -7.6 °C 1022.6 hPa NW 3.2 km/h 8 km/h 65% 0 mm 0 W/m2
01:28 -1.8 °C -7.7 °C 1022.6 hPa NNW 4.8 km/h 8 km/h 64% 0 mm 0 W/m2
01:34 -1.8 °C -7.6 °C 1022.6 hPa NNW 3.2 km/h 4.8 km/h 65% 0 mm 0 W/m2
01:40 -1.9 °C -7.6 °C 1022.6 hPa NNW 1.6 km/h 3.2 km/h 65% 0 mm 0 W/m2
01:46 -1.9 °C -7.4 °C 1022.6 hPa NW 1.6 km/h 3.2 km/h 66% 0 mm 0 W/m2
01:52 -2 °C -7.5 °C 1022.6 hPa NW 1.6 km/h 4.8 km/h 66% 0 mm 0 W/m2
01:58 -2 °C -7.5 °C 1022.6 hPa NW 3.2 km/h 4.8 km/h 66% 0 mm 0 W/m2
02:04 -1.9 °C -7.4 °C 1022.6 hPa NW 3.2 km/h 9.7 km/h 66% 0 mm 0 W/m2
02:10 -1.9 °C -7.4 °C 1022.6 hPa NW 3.2 km/h 3.2 km/h 66% 0 mm 0 W/m2
02:16 -2 °C -7.5 °C 1022.6 hPa Calm   3.2 km/h 66% 0 mm 0 W/m2
02:22 -2.1 °C -7.4 °C 1022.6 hPa Calm     67% 0 mm 0 W/m2
02:28 -2.1 °C -7.4 °C 1022.6 hPa WNW 1.6 km/h 8 km/h 67% 0 mm 0 W/m2
02:34 -2 °C -7.1 °C 1022.6 hPa North 3.2 km/h 4.8 km/h 68% 0 mm 0 W/m2
02:40 -2 °C -7.1 °C 1022.6 hPa North 1.6 km/h 4.8 km/h 68% 0 mm 0 W/m2
02:46 -2.1 °C -7.2 °C 1022.6 hPa NNW 1.6 km/h 4.8 km/h 68% 0 mm 0 W/m2
02:52 -2.1 °C -7.2 °C 1022.6 hPa NNW 1.6 km/h 6.4 km/h 68% 0 mm 0 W/m2
02:58 -2.1 °C -7.2 °C 1022.6 hPa NNW 1.6 km/h 6.4 km/h 68% 0 mm 0 W/m2
03:04 -2.1 °C -7.1 °C 1022.6 hPa NNW 1.6 km/h 3.2 km/h 69% 0 mm 0 W/m2
03:10 -2.1 °C -7.2 °C 1022.6 hPa NW 4.8 km/h 4.8 km/h 68% 0 mm 0 W/m2
03:16 -2.1 °C -7 °C 1022.2 hPa NNW 4.8 km/h 8 km/h 69% 0 mm 0 W/m2
03:22 -2.1 °C -7.1 °C 1022.2 hPa NNE 4.8 km/h 8 km/h 69% 0 mm 0 W/m2
03:28 -2.1 °C -7.1 °C 1022.6 hPa NNW 4.8 km/h 8 km/h 69% 0 mm 0 W/m2
03:34 -2.1 °C -7.1 °C 1022.6 hPa NNW 6.4 km/h 9.7 km/h 69% 0 mm 0 W/m2
03:40 -2.2 °C -6.9 °C 1022.6 hPa NNW 4.8 km/h 4.8 km/h 70% 0 mm 0 W/m2
03:46 -2.2 °C -6.9 °C 1022.6 hPa NNW 4.8 km/h 9.7 km/h 70% 0 mm 0 W/m2
03:52 -2.2 °C -6.8 °C 1022.6 hPa NW 4.8 km/h 9.7 km/h 71% 0 mm 0 W/m2
03:58 -2.2 °C -6.8 °C 1022.6 hPa North 4.8 km/h 9.7 km/h 71% 0 mm 0 W/m2
04:04 -2.2 °C -6.8 °C 1022.6 hPa NW 4.8 km/h 6.4 km/h 71% 0 mm 0 W/m2
04:10 -2.2 °C -6.8 °C 1022.2 hPa NNW 6.4 km/h 6.4 km/h 71% 0 mm 0 W/m2
04:16 -2.3 °C -6.7 °C 1022.2 hPa North 4.8 km/h 6.4 km/h 72% 0 mm 0 W/m2
04:22 -2.3 °C -6.7 °C 1022.2 hPa NNW 4.8 km/h 6.4 km/h 72% 0 mm 0 W/m2
04:28 -2.3 °C -6.7 °C 1022.2 hPa North 6.4 km/h 9.7 km/h 72% 0 mm 0 W/m2
04:34 -2.3 °C -6.7 °C 1022.2 hPa North 6.4 km/h 6.4 km/h 72% 0 mm 0 W/m2
04:40 -2.4 °C -6.8 °C 1022.2 hPa NW 6.4 km/h 6.4 km/h 72% 0 mm 0 W/m2
04:46 -2.4 °C -6.8 °C 1022.2 hPa North 4.8 km/h 6.4 km/h 72% 0 mm 0 W/m2
04:52 -2.4 °C -6.6 °C 1022.2 hPa NNE 4.8 km/h 9.7 km/h 73% 0 mm 0 W/m2
04:58 -2.4 °C -6.6 °C 1022.2 hPa NW 6.4 km/h 12.9 km/h 73% 0 mm 0 W/m2
05:04 -2.4 °C -6.6 °C 1022.2 hPa North 6.4 km/h 8 km/h 73% 0 mm 0 W/m2
05:10 -2.6 °C -6.7 °C 1022.2 hPa NNW 4.8 km/h 6.4 km/h 73% 0 mm 0 W/m2
05:16 -2.6 °C -6.8 °C 1022.2 hPa North 4.8 km/h 6.4 km/h 73% 0 mm 0 W/m2
05:22 -2.7 °C -6.8 °C 1022.2 hPa North 4.8 km/h 11.3 km/h 73% 0 mm 0 W/m2
05:28 -2.7 °C -6.7 °C 1022.2 hPa NNW 6.4 km/h 12.9 km/h 74% 0 mm 0 W/m2
05:34 -2.7 °C -6.7 °C 1022.2 hPa NW 4.8 km/h 6.4 km/h 74% 0 mm 0 W/m2
05:40 -2.8 °C -6.8 °C 1022.6 hPa North 6.4 km/h 9.7 km/h 74% 0 mm 0 W/m2
05:46 -2.8 °C -6.8 °C 1022.6 hPa NNW 6.4 km/h 9.7 km/h 74% 0 mm 0 W/m2
05:52 -2.8 °C -6.8 °C 1022.6 hPa NNW 6.4 km/h 6.4 km/h 74% 0 mm 0 W/m2
05:58 -2.8 °C -6.8 °C 1022.6 hPa NNW 6.4 km/h 17.7 km/h 74% 0 mm 0 W/m2
06:04 -2.8 °C -6.8 °C 1022.6 hPa NNW 4.8 km/h 8 km/h 74% 0 mm 0 W/m2
06:10 -2.8 °C -6.8 °C 1022.6 hPa NNE 4.8 km/h 4.8 km/h 74% 0 mm 0 W/m2
06:16 -2.8 °C -6.8 °C 1022.6 hPa North 3.2 km/h 4.8 km/h 74% 0 mm 0 W/m2
06:22 -2.9 °C -6.9 °C 1022.6 hPa North 4.8 km/h 4.8 km/h 74% 0 mm 0 W/m2
06:28 -2.9 °C -6.9 °C 1022.6 hPa NNW 6.4 km/h 6.4 km/h 74% 0 mm 0 W/m2
06:34 -2.9 °C -6.9 °C 1022.6 hPa NNW 4.8 km/h 6.4 km/h 74% 0 mm 0 W/m2
06:40 -2.9 °C -6.9 °C 1022.6 hPa North 6.4 km/h 6.4 km/h 74% 0 mm 0 W/m2
06:46 -3 °C -7 °C 1022.6 hPa North 6.4 km/h 6.4 km/h 74% 0 mm 5 W/m2
06:52 -3.1 °C -6.9 °C 1022.6 hPa NNW 6.4 km/h 6.4 km/h 75% 0 mm 9 W/m2
06:58 -3.1 °C -6.9 °C 1022.6 hPa NNW 6.4 km/h 11.3 km/h 75% 0 mm 16 W/m2
07:04 -3.1 °C -6.9 °C 1022.6 hPa NW 4.8 km/h 6.4 km/h 75% 0 mm 19 W/m2
07:10 -3.1 °C -6.9 °C 1022.6 hPa North 4.8 km/h 4.8 km/h 75% 0 mm 25 W/m2
07:16 -3.1 °C -6.9 °C 1022.6 hPa NW 6.4 km/h 8 km/h 75% 0 mm 32 W/m2
07:22 -3.1 °C -6.9 °C 1022.6 hPa NW 4.8 km/h 6.4 km/h 75% 0 mm 37 W/m2
07:28 -3.1 °C -6.9 °C 1022.2 hPa North 4.8 km/h 8 km/h 75% 0 mm 51 W/m2
07:34 -3.1 °C -6.9 °C 1022.2 hPa NNW 6.4 km/h 8 km/h 75% 0 mm 56 W/m2
07:40 -3.1 °C -6.9 °C 1022.2 hPa NNW 4.8 km/h 4.8 km/h 75% 0 mm 63 W/m2
07:46 -3 °C -6.8 °C 1022.6 hPa NNW 4.8 km/h 8 km/h 75% 0 mm 76 W/m2
07:52 -2.9 °C -6.8 °C 1022.2 hPa NNW 4.8 km/h 4.8 km/h 75% 0 mm 98 W/m2
07:58 -2.9 °C -6.7 °C 1022.2 hPa WNW 4.8 km/h 8 km/h 75% 0 mm 105 W/m2
08:04 -2.9 °C -6.7 °C 1022.2 hPa North 4.8 km/h 9.7 km/h 75% 0 mm 118 W/m2
08:10 -2.8 °C -6.7 °C 1022.2 hPa WNW 4.8 km/h 6.4 km/h 75% 0 mm 111 W/m2
08:16 -2.8 °C -6.7 °C 1022.2 hPa NNW 4.8 km/h 6.4 km/h 75% 0 mm 118 W/m2
08:22 -2.8 °C -6.7 °C 1022.2 hPa North 4.8 km/h 4.8 km/h 75% 0 mm 121 W/m2
08:28 -2.8 °C -6.6 °C 1022.2 hPa NNW 6.4 km/h 11.3 km/h 75% 0 mm 141 W/m2
08:34 -2.8 °C -6.6 °C 1022.2 hPa North 6.4 km/h 9.7 km/h 75% 0 mm 158 W/m2
08:40 -2.7 °C -6.5 °C 1021.9 hPa NNW 6.4 km/h 6.4 km/h 75% 0 mm 156 W/m2
08:46 -2.6 °C -6.4 °C 1022.2 hPa NW 4.8 km/h 8 km/h 75% 0 mm 169 W/m2
08:52 -2.6 °C -6.4 °C 1022.2 hPa North 4.8 km/h 9.7 km/h 75% 0 mm 202 W/m2
08:58 -2.5 °C -6.3 °C 1022.2 hPa NNW 6.4 km/h 9.7 km/h 75% 0 mm 214 W/m2
09:04 -2.4 °C -6.4 °C 1022.2 hPa NNW 6.4 km/h 8 km/h 74% 0 mm 197 W/m2
09:10 -2.4 °C -6.4 °C 1022.2 hPa NNW 6.4 km/h 6.4 km/h 74% 0 mm 204 W/m2
09:16 -2.4 °C -6.4 °C 1021.9 hPa NW 6.4 km/h 8 km/h 74% 0 mm 258 W/m2
09:22 -2.2 °C -6.2 °C 1021.9 hPa NNW 6.4 km/h 9.7 km/h 74% 0 mm 265 W/m2
09:28 -2.1 °C -6.1 °C 1022.2 hPa North 6.4 km/h 9.7 km/h 74% 0 mm 272 W/m2
09:34 -2.1 °C -6.3 °C 1022.2 hPa NW 4.8 km/h 9.7 km/h 73% 0 mm 295 W/m2
09:40 -1.9 °C -6.2 °C 1022.2 hPa NNE 6.4 km/h 6.4 km/h 73% 0 mm 285 W/m2
09:46 -1.8 °C -6.1 °C 1022.2 hPa NNW 6.4 km/h 9.7 km/h 73% 0 mm 258 W/m2
09:52 -1.8 °C -6.1 °C 1022.2 hPa NNW 6.4 km/h 6.4 km/h 73% 0 mm 269 W/m2
09:58 -1.7 °C -5.9 °C 1022.2 hPa NNW 4.8 km/h 6.4 km/h 73% 0 mm 292 W/m2
10:04 -1.7 °C -5.9 °C 1022.2 hPa NNE 4.8 km/h 4.8 km/h 73% 0 mm 334 W/m2
10:10 -1.5 °C -5.9 °C 1022.2 hPa NNW 4.8 km/h 4.8 km/h 72% 0 mm 330 W/m2
10:16 -1.4 °C -5.8 °C 1022.6 hPa NW 4.8 km/h 4.8 km/h 72% 0 mm 387 W/m2
10:22 -0.9 °C -5.7 °C 1022.2 hPa NNW 4.8 km/h 4.8 km/h 70% 0 mm 383 W/m2
10:28 -0.7 °C -5.4 °C 1022.6 hPa North 4.8 km/h 6.4 km/h 70% 0 mm 380 W/m2
10:34 -0.9 °C -5.9 °C 1022.6 hPa NNE 6.4 km/h 8 km/h 69% 0 mm 345 W/m2
10:40 -0.9 °C -5.5 °C 1022.6 hPa NW 4.8 km/h 4.8 km/h 71% 0 mm 366 W/m2
10:46 -0.8 °C -5.8 °C 1022.6 hPa North 3.2 km/h 6.4 km/h 69% 0 mm 429 W/m2
10:52 -0.4 °C -5.4 °C 1022.6 hPa NW 4.8 km/h 8 km/h 69% 0 mm 417 W/m2
10:58 -0.4 °C -5.4 °C 1022.6 hPa NNW 4.8 km/h 8 km/h 69% 0 mm 315 W/m2
11:04 -0.6 °C -5.8 °C 1022.6 hPa NW 4.8 km/h 6.4 km/h 68% 0 mm 510 W/m2
11:10 -0.4 °C -5.6 °C 1022.6 hPa WNW 4.8 km/h 6.4 km/h 68% 0 mm 529 W/m2
11:16 -0.5 °C -5.5 °C 1022.6 hPa West 4.8 km/h 9.7 km/h 69% 0 mm 378 W/m2
11:22 -0.6 °C -5.6 °C 1022.9 hPa WNW 4.8 km/h 8 km/h 69% 0 mm 390 W/m2
11:28 -0.2 °C -5.2 °C 1022.9 hPa WNW 4.8 km/h 8 km/h 69% 0 mm 499 W/m2
11:34 -0.2 °C -5.4 °C 1022.6 hPa WNW 3.2 km/h 6.4 km/h 68% 0 mm 582 W/m2
11:40 0 °C -5.4 °C 1022.6 hPa West 4.8 km/h 4.8 km/h 67% 0 mm 557 W/m2
11:46 -0.3 °C -5.5 °C 1022.6 hPa West 4.8 km/h 6.4 km/h 68% 0 mm 406 W/m2
11:52 0.6 °C -4.4 °C 1022.6 hPa WNW 4.8 km/h 4.8 km/h 69% 0 mm 517 W/m2
11:56 0.7 °C -4.9 °C 1022.6 hPa WNW 3.2 km/h 6.4 km/h 66% 0 mm 459 W/m2
12:02 0.2 °C -5.4 °C 1022.6 hPa WNW 4.8 km/h 4.8 km/h 66% 0 mm 573 W/m2
12:08 0.5 °C -4.7 °C 1022.6 hPa WNW 4.8 km/h 9.7 km/h 68% 0 mm 1004 W/m2
12:14 0.8 °C -4.8 °C 1022.6 hPa WNW 4.8 km/h 4.8 km/h 66% 0 mm 842 W/m2
12:20 1.4 °C -4.5 °C 1022.2 hPa WNW 4.8 km/h 9.7 km/h 65% 0 mm 909 W/m2
12:26 1.3 °C -4.7 °C 1022.2 hPa NW 4.8 km/h 9.7 km/h 64% 0 mm 953 W/m2
12:32 0.7 °C -4.9 °C 1022.2 hPa WNW 6.4 km/h 6.4 km/h 66% 0 mm 406 W/m2
12:38 1.2 °C -4.6 °C 1022.2 hPa West 6.4 km/h 6.4 km/h 65% 0 mm 663 W/m2
12:44 1.6 °C -4.5 °C 1022.2 hPa NNW 4.8 km/h 6.4 km/h 64% 0 mm 847 W/m2
12:50 1.3 °C -5 °C 1021.9 hPa NW 4.8 km/h 4.8 km/h 63% 0 mm 330 W/m2
12:56 0.8 °C -5.1 °C 1021.9 hPa NNW 4.8 km/h 4.8 km/h 65% 0 mm 274 W/m2
13:02 0.9 °C -4.9 °C 1021.9 hPa West 4.8 km/h 8 km/h 65% 0 mm 316 W/m2
13:08 1.3 °C -4.4 °C 1021.9 hPa WNW 4.8 km/h 8 km/h 66% 0 mm 935 W/m2
13:14 1.1 °C -4.7 °C 1021.9 hPa North 4.8 km/h 8 km/h 65% 0 mm 227 W/m2
13:20 0.7 °C -4.9 °C 1021.9 hPa NNW 6.4 km/h 6.4 km/h 66% 0 mm 188 W/m2
13:26 1.5 °C -4.4 °C 1021.9 hPa WNW 4.8 km/h 6.4 km/h 65% 0 mm 865 W/m2
13:32 1.3 °C -4.9 °C 1021.9 hPa NW 6.4 km/h 6.4 km/h 63% 0 mm 571 W/m2
13:38 1.3 °C -4.8 °C 1021.6 hPa NNW 6.4 km/h 6.4 km/h 64% 0 mm 719 W/m2
13:44 1.5 °C -5.2 °C 1021.6 hPa North 6.4 km/h 11.3 km/h 61% 0 mm 137 W/m2
13:50 0.8 °C -4.8 °C 1021.6 hPa North 8 km/h 8 km/h 66% 0 mm 726 W/m2
13:56 1.4 °C -4.4 °C 1021.6 hPa NW 8 km/h 9.7 km/h 65% 0 mm 701 W/m2
14:02 1.5 °C -4.8 °C 1021.6 hPa NW 8 km/h 14.5 km/h 63% 0 mm 675 W/m2
14:08 1.7 °C -4.4 °C 1021.6 hPa WNW 6.4 km/h 14.5 km/h 64% 0 mm 708 W/m2
14:14 1.6 °C -4.7 °C 1021.6 hPa NNW 6.4 km/h 8 km/h 63% 0 mm 700 W/m2
14:20 1.4 °C -4.9 °C 1021.6 hPa North 8 km/h 16.1 km/h 63% 0 mm 288 W/m2
14:26 1.3 °C -5 °C 1021.9 hPa NNW 8 km/h 16.1 km/h 63% 0 mm 563 W/m2
14:32 1.1 °C -5.2 °C 1021.6 hPa NNE 8 km/h 8 km/h 63% 0 mm 483 W/m2
14:38 1.2 °C -5.1 °C 1021.6 hPa NNW 8 km/h 9.7 km/h 63% 0 mm 396 W/m2
14:44 1.8 °C -4.4 °C 1021.6 hPa NW 6.4 km/h 11.3 km/h 63% 0 mm 534 W/m2
14:50 0.9 °C -5.3 °C 1021.6 hPa North 8 km/h 11.3 km/h 63% 0 mm 181 W/m2
14:56 0.8 °C -4.8 °C 1021.6 hPa NNW 8 km/h 11.3 km/h 66% 0 mm 135 W/m2
15:02 0.3 °C -5.1 °C 1021.9 hPa North 8 km/h 12.9 km/h 67% 0 mm 197 W/m2
15:08 0.3 °C -4.7 °C 1021.9 hPa NW 8 km/h 12.9 km/h 69% 0 mm 257 W/m2
15:14 0.3 °C -4.9 °C 1021.9 hPa NW 8 km/h 11.3 km/h 68% 0 mm 218 W/m2
15:20 -0.1 °C -5.1 °C 1021.9 hPa NW 9.7 km/h 9.7 km/h 69% 0 mm 160 W/m2
15:26 -0.2 °C -5.2 °C 1021.9 hPa NW 8 km/h 9.7 km/h 69% 0 mm 88 W/m2
15:32 -0.4 °C -5.2 °C 1021.9 hPa North 6.4 km/h 11.3 km/h 70% 0 mm 100 W/m2
15:38 -0.6 °C -5.3 °C 1021.9 hPa WNW 8 km/h 11.3 km/h 70% 0 mm 156 W/m2
15:44 -0.6 °C -5.2 °C 1021.9 hPa NNW 6.4 km/h 12.9 km/h 71% 0 mm 162 W/m2
15:50 -0.5 °C -5.1 °C 1021.9 hPa NNW 6.4 km/h 8 km/h 71% 0 mm 141 W/m2
15:56 -0.6 °C -5.2 °C 1021.9 hPa NNW 6.4 km/h 8 km/h 71% 0 mm 188 W/m2
16:03 -0.1 °C -4.9 °C 1021.9 hPa North 6.4 km/h 6.4 km/h 70% 0 mm 118 W/m2
16:08 -0.3 °C -5.2 °C 1021.9 hPa NW 6.4 km/h 6.4 km/h 70% 0 mm 128 W/m2
16:14 -0.6 °C -5.2 °C 1021.9 hPa NW 4.8 km/h 8 km/h 71% 0 mm 107 W/m2
16:20 -0.6 °C -5.2 °C 1021.9 hPa NW 6.4 km/h 6.4 km/h 71% 0 mm 114 W/m2
16:26 -0.6 °C -5.2 °C 1021.9 hPa NNW 6.4 km/h 9.7 km/h 71% 0 mm 111 W/m2
16:32 -0.6 °C -5.2 °C 1021.9 hPa North 8 km/h 11.3 km/h 71% 0 mm 91 W/m2
16:38 -0.6 °C -5.1 °C 1021.9 hPa WNW 6.4 km/h 11.3 km/h 72% 0 mm 74 W/m2
16:44 -0.6 °C -5.1 °C 1021.9 hPa NNW 4.8 km/h 4.8 km/h 72% 0 mm 63 W/m2
16:50 -0.7 °C -4.9 °C 1021.9 hPa NW 4.8 km/h 4.8 km/h 73% 0 mm 51 W/m2
16:56 -0.8 °C -5 °C 1021.9 hPa NW 6.4 km/h 12.9 km/h 73% 0 mm 47 W/m2
17:02 -0.8 °C -5.1 °C 1021.9 hPa NNW 6.4 km/h 6.4 km/h 73% 0 mm 35 W/m2
17:08 -0.9 °C -5.1 °C 1021.9 hPa NNW 6.4 km/h 6.4 km/h 73% 0 mm 28 W/m2
17:14 -0.9 °C -5 °C 1021.9 hPa NNW 6.4 km/h 6.4 km/h 74% 0 mm 28 W/m2
17:20 -1 °C -5.1 °C 1021.9 hPa North 6.4 km/h 6.4 km/h 74% 0 mm 23 W/m2
17:26 -1 °C -5.1 °C 1021.9 hPa NNW 4.8 km/h 8 km/h 74% 0 mm 18 W/m2
17:32 -1.1 °C -5.1 °C 1021.9 hPa North 4.8 km/h 6.4 km/h 74% 0 mm 12 W/m2
17:38 -1.1 °C -5 °C 1021.9 hPa NNW 6.4 km/h 6.4 km/h 75% 0 mm 9 W/m2
17:44 -1.1 °C -5 °C 1021.9 hPa NNW 4.8 km/h 6.4 km/h 75% 0 mm 7 W/m2
17:50 -1.1 °C -5 °C 1021.9 hPa NNW 3.2 km/h 3.2 km/h 75% 0 mm 5 W/m2
17:56 -1.2 °C -5.1 °C 1021.9 hPa NNW 3.2 km/h 4.8 km/h 75% 0 mm 0 W/m2
18:02 -1.2 °C -4.8 °C 1021.9 hPa NW 4.8 km/h 4.8 km/h 76% 0 mm 0 W/m2
18:08 -1.2 °C -4.9 °C 1021.9 hPa NW 4.8 km/h 4.8 km/h 76% 0 mm 0 W/m2
18:14 -1.2 °C -4.9 °C 1021.9 hPa NW 3.2 km/h 4.8 km/h 76% 0 mm 0 W/m2
18:20 -1.2 °C -4.9 °C 1021.9 hPa NW 3.2 km/h 3.2 km/h 76% 0 mm 0 W/m2
18:26 -1.2 °C -4.9 °C 1021.9 hPa NW 3.2 km/h 4.8 km/h 76% 0 mm 0 W/m2
18:32 -1.2 °C -4.9 °C 1021.9 hPa NW 1.6 km/h 1.6 km/h 76% 0 mm 0 W/m2
18:38 -1.2 °C -4.9 °C 1021.9 hPa NW 1.6 km/h 3.2 km/h 76% 0 mm 0 W/m2
18:44 -1.3 °C -4.9 °C 1021.9 hPa NW 1.6 km/h 3.2 km/h 76% 0 mm 0 W/m2
18:50 -1.2 °C -4.9 °C 1021.6 hPa NW 1.6 km/h 1.6 km/h 76% 0 mm 0 W/m2
18:56 -1.2 °C -4.7 °C 1021.6 hPa NW 1.6 km/h 1.6 km/h 77% 0 mm 0 W/m2
19:02 -1.2 °C -4.7 °C 1021.6 hPa NW 1.6 km/h 1.6 km/h 77% 0 mm 0 W/m2
19:08 -1.2 °C -4.7 °C 1021.6 hPa Calm   1.6 km/h 77% 0 mm 0 W/m2
19:14 -1.3 °C -4.8 °C 1021.6 hPa Calm   3.2 km/h 77% 0 mm 0 W/m2
19:20 -1.2 °C -4.7 °C 1021.6 hPa NW 1.6 km/h 1.6 km/h 77% 0 mm 0 W/m2
19:26 -1.2 °C -4.6 °C 1021.6 hPa NW 1.6 km/h 3.2 km/h 78% 0 mm 0 W/m2
19:32 -1.3 °C -4.6 °C 1021.6 hPa NW 1.6 km/h 1.6 km/h 78% 0 mm 0 W/m2
19:38 -1.3 °C -4.6 °C 1021.6 hPa Calm   1.6 km/h 78% 0 mm 0 W/m2
19:44 -1.2 °C -4.6 °C 1021.6 hPa Calm     78% 0 mm 0 W/m2
19:50 -1.2 °C -4.6 °C 1021.6 hPa Calm     78% 0 mm 0 W/m2
19:56 -1.3 °C -4.6 °C 1021.6 hPa Calm     78% 0 mm 0 W/m2
20:02 -1.3 °C -4.6 °C 1021.6 hPa Calm     78% 0 mm 0 W/m2
20:08 -1.3 °C -4.4 °C 1021.2 hPa Calm     79% 0 mm 0 W/m2
20:14 -1.3 °C -4.5 °C 1021.2 hPa Calm     79% 0 mm 0 W/m2
20:20 -1.3 °C -4.5 °C 1020.9 hPa Calm     79% 0 mm 0 W/m2
20:26 -1.3 °C -4.5 °C 1020.9 hPa Calm     79% 0 mm 0 W/m2
20:32 -1.3 °C -4.5 °C 1020.9 hPa NW 1.6 km/h 3.2 km/h 79% 0 mm 0 W/m2
20:38 -1.3 °C -4.6 °C 1020.9 hPa NW 1.6 km/h 3.2 km/h 78% 0 mm 0 W/m2
20:44 -1.3 °C -4.6 °C 1020.9 hPa Calm   1.6 km/h 78% 0 mm 0 W/m2
20:50 -1.3 °C -4.4 °C 1020.9 hPa NW 1.6 km/h 1.6 km/h 79% 0 mm 0 W/m2
20:56 -1.3 °C -4.6 °C 1020.9 hPa NW 1.6 km/h 1.6 km/h 78% 0 mm 0 W/m2
21:02 -1.2 °C -4.6 °C 1020.9 hPa Calm     78% 0 mm 0 W/m2
21:08 -1.2 °C -4.6 °C 1020.9 hPa NW 1.6 km/h 3.2 km/h 78% 0 mm 0 W/m2
21:14 -1.2 °C -4.6 °C 1020.5 hPa NW 1.6 km/h 1.6 km/h 78% 0 mm 0 W/m2
21:20 -1.2 °C -4.6 °C 1020.5 hPa NW 1.6 km/h 1.6 km/h 78% 0 mm 0 W/m2
21:26 -1.2 °C -4.7 °C 1020.5 hPa NW 1.6 km/h 3.2 km/h 77% 0 mm 0 W/m2
21:32 -1.2 °C -4.7 °C 1020.5 hPa ENE 1.6 km/h 3.2 km/h 77% 0 mm 0 W/m2
21:38 -1.2 °C -4.7 °C 1020.2 hPa North 3.2 km/h 3.2 km/h 77% 0 mm 0 W/m2
21:44 -1.2 °C -4.8 °C 1020.2 hPa North 3.2 km/h 6.4 km/h 76% 0 mm 0 W/m2
21:50 -1.1 °C -4.8 °C 1020.2 hPa North 3.2 km/h 6.4 km/h 76% 0 mm 0 W/m2
21:56 -1.1 °C -4.8 °C 1020.2 hPa North 3.2 km/h 6.4 km/h 76% 0 mm 0 W/m2
22:02 -1.2 °C -4.8 °C 1020.2 hPa North 1.6 km/h 3.2 km/h 76% 0 mm 0 W/m2
22:08 -1.2 °C -4.8 °C 1020.2 hPa North 1.6 km/h 4.8 km/h 76% 0 mm 0 W/m2
22:14 -1.2 °C -4.8 °C 1019.9 hPa NNE 3.2 km/h 6.4 km/h 76% 0 mm 0 W/m2
22:20 -1.2 °C -4.8 °C 1019.9 hPa NNW 3.2 km/h 8 km/h 76% 0 mm 0 W/m2
22:26 -1.2 °C -4.8 °C 1019.9 hPa NNW 4.8 km/h 8 km/h 76% 0 mm 0 W/m2
22:32 -1.2 °C -4.8 °C 1019.9 hPa NNE 3.2 km/h 6.4 km/h 76% 0 mm 0 W/m2
22:38 -1.2 °C -4.9 °C 1019.5 hPa North 3.2 km/h 6.4 km/h 76% 0 mm 0 W/m2
22:44 -1.2 °C -4.9 °C 1019.5 hPa NNW 3.2 km/h 8 km/h 76% 0 mm 0 W/m2
22:50 -1.2 °C -4.9 °C 1019.5 hPa NE 3.2 km/h 8 km/h 76% 0 mm 0 W/m2
22:56 -1.2 °C -5.1 °C 1019.5 hPa North 3.2 km/h 8 km/h 75% 0 mm 0 W/m2
23:02 -1.2 °C -5.1 °C 1019.5 hPa North 3.2 km/h 3.2 km/h 75% 0 mm 0 W/m2
23:08 -1.2 °C -5.1 °C 1019.5 hPa North 1.6 km/h 3.2 km/h 75% 0 mm 0 W/m2
23:14 -1.2 °C -5.1 °C 1019.5 hPa North 1.6 km/h 3.2 km/h 75% 0 mm 0 W/m2
23:20 -1.3 °C -4.9 °C 1019.5 hPa North 3.2 km/h 3.2 km/h 76% 0 mm 0 W/m2
23:26 -1.3 °C -4.9 °C 1019.5 hPa North 1.6 km/h 3.2 km/h 76% 0 mm 0 W/m2
23:32 -1.3 °C -5 °C 1019.5 hPa North 1.6 km/h 1.6 km/h 76% 0 mm 0 W/m2
23:38 -1.3 °C -5 °C 1019.2 hPa North 1.6 km/h 1.6 km/h 76% 0 mm 0 W/m2
23:44 -1.4 °C -5.1 °C 1019.2 hPa Calm   1.6 km/h 76% 0 mm 0 W/m2
23:50 -1.4 °C -5.1 °C 1019.2 hPa Calm   3.2 km/h 76% 0 mm 0 W/m2
23:56 -1.4 °C -5.1 °C 1019.2 hPa Calm   3.2 km/h 76% 0 mm 0 W/m2
Country Meadow, Clay, NY, USA
Compliments of Weather Underground - 2 mb